This demonstration page uses our WeatherBlox Daily Observations layout. Learn more.

Left ArrowRight Arrow

Hourly Observations for September 9, 2021

Temp ( °F °C ) Dew Point ( °F °C ) Humidity (%) Winds ( mph kmh ) Pressure ( in mb ) Visibility ( mi km ) Precip ( " mm )
12:54 am 00:54 Mostly Cloudy 59 15 53 11.7 81 81 NNE 3 6 30.06 1018 10 16 N/A
1:54 am 01:54 Clear 58 14.4 53 11.7 84 84 N 3 6 30.06 1018 10 16 N/A
2:54 am 02:54 Clear 58 14.4 53 11.7 84 84 NNW 3 6 30.07 1018 10 16 N/A
3:54 am 03:54 Clear 55 12.8 51 10.6 87 87 N 5 7 30.08 1019 10 16 N/A
4:54 am 04:54 Clear 54 12.2 51 10.6 90 90 N 5 7 30.08 1019 10 16 N/A
5:54 am 05:54 Clear 53 11.7 50 10 89 89 N 5 7 30.07 1018 10 16 N/A
6:54 am 06:54 Clear 52 11.1 49 9.4 89 89 N 6 9 30.09 1019 10 16 N/A
7:54 am 07:54 Sunny 54 12.2 51 10.6 90 90 N 7 11 30.10 1019 10 16 N/A
8:54 am 08:54 Sunny 61 16.1 53 11.7 75 75 N N/A 30.08 1019 10 16 N/A
9:54 am 09:54 Sunny 68 20 54 12.2 61 61 N N/A 30.06 1018 10 16 N/A
10:54 am 10:54 Sunny 75 23.9 52 11.1 45 45 E 9 15 30.05 1018 10 16 N/A
11:54 am 11:54 Sunny 78 25.6 51 10.6 39 39 ESE 10 17 30.04 1017 10 16 N/A
12:54 pm 12:54 Sunny 80 26.7 52 11.1 38 38 E 8 13 30.02 1017 10 16 N/A
1:54 pm 13:54 Sunny 82 27.8 54 12.2 38 38 E 8 13 30.01 1016 10 16 N/A
2:54 pm 14:54 Sunny 82 27.8 53 11.7 37 37 ESE 5 7 29.99 1016 10 16 N/A
3:54 pm 15:54 Sunny 83 28.3 54 12.2 37 37 ESE 8 13 29.97 1015 10 16 N/A
4:54 pm 16:54 Sunny 82 27.8 53 11.7 37 37 SSE 8 13 29.96 1015 10 16 N/A
5:54 pm 17:54 Sunny 81 27.2 54 12.2 39 39 SE 8 13 29.95 1014 10 16 N/A
6:54 pm 18:54 Sunny 78 25.6 56 13.3 47 47 ESE 7 11 29.95 1014 10 16 N/A
7:54 pm 19:54 Clear 75 23.9 55 12.8 50 50 ESE 6 9 29.95 1014 10 16 N/A
8:54 pm 20:54 Clear 72 22.2 57 13.9 59 59 ESE 6 9 29.95 1014 10 16 N/A
9:54 pm 21:54 Clear 71 21.7 57 13.9 61 61 SE 8 13 29.95 1014 10 16 N/A
10:54 pm 22:54 Clear 70 21.1 56 13.3 61 61 SE 6 9 29.94 1014 10 16 N/A
11:54 pm 23:54 Clear 68 20 57 13.9 68 68 N N/A 29.95 1014 10 16 N/A

Powered by AerisWeather